DW8305 Weather Reports


time (UTC)temp
F
wind
direction
speed
knots
gust
knots
rain 1hr
in
rain 24hr
in
rain mn
in
humidity
%
barometer
mb
20260507110916 48 45 0.9 1.7 0.00 0.99 0.14 91 1017.2
20260507105916 48 23 3.5 4.3 0.00 1.03 0.14 91 1017.2
20260507104916 48 68 0.9 1.7 0.00 1.03 0.14 91 1017.1
20260507103916 48 45 0.9 2.6 0.00 1.03 0.14 91 1017.0
20260507102916 48 90 1.7 2.6 0.00 1.03 0.14 91 1016.9
20260507101916 47 45 2.6 4.3 0.00 1.03 0.14 92 1016.8
20260507100916 47 45 3.5 6.1 0.00 1.03 0.14 92 1016.7
20260507095956 48 68 0.9 1.7 0.00 1.06 0.14 92 1016.6
20260507094936 47 0.0 0.9 0.00 1.06 0.14 92 1016.5
20260507093916 47 45 2.6 5.2 0.00 1.06 0.14 92 1016.4
20260507092916 47 23 2.6 5.2 0.00 1.06 0.14 92 1016.2
20260507091916 47 68 3.5 5.2 0.00 1.06 0.14 92 1016.1
20260507090916 47 68 2.6 4.3 0.00 1.06 0.14 92 1016.0
20260507085936 46 0.0 0.9 0.00 1.14 0.14 92 1015.9
20260507084916 46 68 1.7 2.6 0.00 1.14 0.14 92 1015.9
20260507083916 46 90 0.9 1.7 0.00 1.14 0.14 92 1015.8
20260507082916 46 68 1.7 2.6 0.00 1.14 0.14 92 1015.7
20260507081916 46 68 0.9 2.6 0.00 1.14 0.14 92 1015.7
20260507080916 46 45 1.7 6.1 0.00 1.14 0.14 92 1015.6
20260507075916 46 90 0.9 1.7 0.00 1.24 0.14 92 1015.5
20260507074936 45 68 1.7 3.5 0.00 1.24 0.14 92 1015.4
20260507073916 46 45 0.9 1.7 0.00 1.24 0.14 92 1015.1
20260507072936 45 68 3.5 4.3 0.00 1.24 0.14 92 1015.1
20260507071916 45 68 0.9 1.7 0.00 1.24 0.14 92 1015.0
20260507070916 45 45 1.7 2.6 0.00 1.24 0.14 92 1015.0
20260507065916 45 68 1.7 4.3 0.00 1.31 0.14 92 1014.9
20260507064916 45 113 1.7 3.5 0.00 1.31 0.14 92 1014.8
20260507063916 45 90 1.7 3.5 0.00 1.31 0.14 92 1014.6
20260507062916 45 45 2.6 3.5 0.00 1.31 0.14 92 1014.5
20260507061915 45 90 0.9 2.6 0.00 1.31 0.14 92 1014.4
20260507060916 45 90 1.7 2.6 0.00 1.31 0.14 92 1014.3
20260507055916 45 90 2.6 4.3 0.00 1.38 0.14 92 1014.1
20260507054916 45 45 2.6 5.2 0.00 1.38 0.14 92 1013.9
20260507053916 45 90 1.7 4.3 0.00 1.38 0.14 92 1013.9
20260507052915 45 68 1.7 3.5 0.00 1.38 0.14 92 1013.8
20260507051916 45 90 0.9 1.7 0.00 1.38 0.14 92 1013.7
20260507050915 45 45 1.7 2.6 0.00 1.38 0.14 92 1013.6
20260507045915 45 45 1.7 3.5 0.00 1.46 0.14 93 1013.5
20260507044916 45 45 1.7 1.7 0.01 1.46 0.14 93 1013.4
20260507043915 45 45 0.9 2.6 0.01 1.46 0.14 93 1013.3
20260507042916 45 158 1.7 4.3 0.01 1.46 0.14 93 1013.2
20260507041915 45 0.0 0.9 0.01 1.46 0.14 93 1013.1
20260507040956 45 23 2.6 5.2 0.01 1.46 0.14 93 1012.9
20260507035915 46 23 2.6 2.6 0.01 1.56 0.14 93 1012.9
20260507034915 46 338 0.9 2.6 0.00 1.55 0.13 93 1012.8
20260507033915 46 45 1.7 3.5 0.00 1.55 0.13 93 1012.7
20260507032915 46 0.0 1.7 0.00 1.55 0.13 93 1012.7
20260507031935 46 45 0.9 0.9 0.00 1.55 0.13 93 1012.6
20260507030916 46 45 0.9 2.6 0.00 1.55 0.13 93 1012.5
20260507025916 46 23 3.5 4.3 0.00 1.61 0.13 93 1012.4
20260507024916 47 45 1.7 2.6 0.00 1.61 0.13 93 1012.3
20260507023916 47 45 1.7 3.5 0.01 1.61 0.13 93 1012.2
20260507022915 47 45 1.7 2.6 0.01 1.61 0.13 93 1012.1
20260507021915 47 45 0.9 1.7 0.01 1.61 0.13 93 1012.2
20260507020936 47 0 0.9 2.6 0.01 1.61 0.13 93 1012.0
20260507015915 47 338 0.9 1.7 0.01 1.65 0.13 93 1011.9
20260507014915 47 0.0 0.9 0.01 1.65 0.13 93 1011.9
20260507013915 47 0.0 1.7 0.01 1.64 0.13 93 1011.8
20260507012936 47 23 1.7 2.6 0.01 1.64 0.13 93 1011.8
20260507011915 47 23 1.7 2.6 0.01 1.64 0.13 93 1011.8
20260507010915 47 45 0.9 1.7 0.01 1.64 0.13 93 1011.8
20260507005916 47 45 0.9 2.6 0.02 1.65 0.13 93 1011.7
20260507004915 47 0.0 0.9 0.02 1.65 0.13 93 1011.7
20260507003936 47 45 0.9 1.7 0.02 1.65 0.12 93 1011.6
20260507002915 47 23 1.7 3.5 0.02 1.65 0.12 93 1011.6
20260507001916 47 45 3.5 7.0 0.04 1.65 0.12 93 1011.5
20260507000915 47 45 2.6 3.5 0.05 1.65 0.12 93 1011.5
20260506235915 47 45 1.7 2.6 0.06 1.64 0.11 93 1011.4
20260506234915 47 45 1.7 3.5 0.06 1.63 0.10 93 1011.4
20260506233936 47 90 1.7 2.6 0.06 1.62 0.09 93 1011.4
20260506232916 47 90 0.9 1.7 0.07 1.62 0.09 93 1011.3
20260506231916 47 45 1.7 3.5 0.06 1.61 0.08 93 1011.2
20260506230916 48 45 2.6 3.5 0.06 1.60 0.07 93 1011.3
20260506225936 48 45 0.9 0.9 0.06 1.58 0.06 93 1011.2
20260506224915 48 0.0 0.9 0.06 1.57 0.05 93 1011.2
20260506223916 48 0.0 0.0 0.05 1.57 0.04 93 1011.0
20260506222915 48 0.0 0.9 0.03 1.55 0.02 93 1011.0
20260506221916 48 0.0 0.9 0.02 1.54 0.02 93 1010.9
20260506220916 48 45 2.6 3.5 0.02 1.54 0.01 93 1010.9
20260506215916 48 45 1.7 2.6 0.02 1.53 1.53 93 1010.8
20260506214916 48 68 1.7 3.5 0.02 1.52 1.52 93 1010.8
20260506213936 48 45 1.7 3.5 0.03 1.52 1.52 93 1010.6
20260506212916 48 45 2.6 4.3 0.05 1.52 1.52 93 1010.6
20260506211916 48 68 1.7 4.3 0.06 1.52 1.52 94 1010.4
20260506210916 48 90 1.7 2.6 0.08 1.51 1.51 94 1010.4
20260506205916 48 45 1.7 2.6 0.11 1.50 1.50 94 1010.5
20260506204916 48 45 0.9 1.7 0.13 1.50 1.50 94 1010.5
20260506203936 48 0.0 0.9 0.15 1.49 1.49 94 1010.4
20260506202936 48 45 1.7 4.3 0.16 1.47 1.47 94 1010.4
20260506201916 48 45 2.6 6.1 0.17 1.46 1.46 94 1010.3
20260506200916 48 45 1.7 2.6 0.18 1.43 1.43 94 1010.2
20260506195916 48 45 3.5 5.2 0.17 1.39 1.39 94 1010.2
20260506194916 48 45 2.6 4.3 0.17 1.36 1.36 94 1010.2
20260506193916 48 338 1.7 5.2 0.16 1.34 1.34 94 1010.1
20260506192916 48 45 1.7 5.2 0.14 1.31 1.31 94 1010.1
20260506191936 48 23 0.9 2.6 0.13 1.28 1.28 94 1009.9
20260506190916 48 45 1.7 2.6 0.11 1.24 1.24 94 1009.9
20260506185916 48 23 3.5 5.2 0.10 1.21 1.21 94 1009.7
20260506184916 48 23 4.3 6.1 0.10 1.20 1.20 94 1009.6
20260506183916 48 23 2.6 5.2 0.10 1.18 1.18 94 1009.4
20260506182916 48 0 1.7 4.3 0.12 1.17 1.17 94 1009.3
20260506181916 48 338 1.7 3.5 0.11 1.15 1.15 94 1009.3
20260506180936 48 45 2.6 7.0 0.11 1.13 1.13 94 1009.2
20260506175916 48 45 2.6 6.1 0.13 1.11 1.11 94 1009.2
20260506174916 48 45 2.6 6.1 0.13 1.09 1.09 94 1009.1
20260506173916 48 23 2.6 6.1 0.13 1.08 1.08 94 1009.1
20260506172916 48 0 0.9 1.7 0.15 1.06 1.06 94 1009.2
20260506171916 48 45 0.9 1.7 0.17 1.03 1.03 94 1009.1
20260506170916 48 0.0 0.9 0.19 1.02 1.02 94 1008.9
20260506165916 48 23 1.7 3.5 0.19 0.98 0.98 94 1008.9
20260506164916 48 0 0.9 2.6 0.20 0.97 0.97 95 1008.9
20260506163916 48 45 2.6 4.3 0.18 0.94 0.94 95 1008.9
20260506162916 48 0 0.9 1.7 0.14 0.90 0.90 95 1008.9
20260506161916 48 0 0.9 3.5 0.10 0.86 0.86 95 1008.9
20260506160916 48 0.0 0.0 0.07 0.82 0.82 95 1008.9
20260506155916 48 45 1.7 2.6 0.05 0.80 0.80 95 1008.8
20260506154916 48 45 3.5 5.2 0.03 0.77 0.77 95 1008.8
20260506153916 48 45 2.6 6.1 0.02 0.76 0.76 95 1008.8
20260506152936 48 45 2.6 4.3 0.02 0.76 0.76 95 1008.7
20260506151916 48 23 2.6 4.3 0.03 0.76 0.76 95 1008.8
20260506150916 48 0 1.7 2.6 0.02 0.75 0.75 95 1008.7
20260506145916 48 68 1.7 3.5 0.02 0.75 0.75 95 1008.7
20260506144916 48 23 2.6 6.1 0.02 0.74 0.74 95 1008.6
20260506143916 48 45 0.9 2.6 0.03 0.74 0.74 95 1008.5
20260506142916 48 68 3.5 7.8 0.03 0.73 0.73 95 1008.6
20260506141936 48 45 3.5 7.0 0.03 0.72 0.72 95 1008.6
20260506140916 48 45 1.7 3.5 0.03 0.72 0.72 95 1008.6
20260506135916 48 45 3.5 5.2 0.04 0.72 0.72 95 1008.6
20260506134916 48 45 2.6 6.1 0.03 0.72 0.72 95 1008.7
20260506133917 48 45 2.6 4.3 0.02 0.71 0.71 95 1008.7
20260506132916 48 68 3.5 7.0 0.02 0.70 0.70 95 1008.7
20260506131916 48 45 3.5 5.2 0.01 0.69 0.69 96 1008.6
20260506130916 48 45 4.3 7.8 0.01 0.69 0.69 96 1008.6
20260506125936 48 45 2.6 4.3 0.00 0.69 0.69 96 1008.6
20260506124916 48 45 3.5 7.0 0.01 0.69 0.69 96 1008.5
20260506123916 48 68 4.3 5.2 0.01 0.69 0.69 96 1008.5
20260506122916 48 45 2.6 6.1 0.01 0.69 0.69 96 1008.4
20260506121916 48 68 2.6 5.2 0.01 0.69 0.69 96 1008.4
20260506120936 48 68 2.6 4.3 0.01 0.69 0.69 96 1008.4
20260506115916 48 45 6.1 8.7 0.01 0.69 0.69 96 1008.2
20260506114916 48 45 2.6 4.3 0.01 0.68 0.68 96 1008.3
20260506113916 47 45 3.5 7.0 0.01 0.68 0.68 96 1008.3
20260506112916 48 68 3.5 5.2 0.02 0.68 0.68 96 1008.4
20260506111916 48 45 3.5 6.1 0.02 0.68 0.68 96 1008.4